QPF
0.00 0.00 0.00 0.00 0.00 0.00 0.00 0.01 0.01 0.01 0.01 0.01 0.01 0.01 0.01 0.01 0.01 0.01 0.01 0.02 0.03 0.03 0.04 0.03 0.03 0.01 0.01 0.00 0.00 0.00 0.00 0.00 0.00 0.00 0.00 0.00 0.00 0.00 0.00 0.00 0.00 0.00 0.00
0.00 0.00 0.00 0.00 0.00 0.01 0.01 0.01 0.00 0.00 0.00 0.01 0.01 0.01 0.01 0.01 0.01 0.01 0.01 0.01 0.01 0.01 0.02 0.01 0.01 0.01 0.00 0.00 0.00 0.00 0.00 0.00 0.00 0.00 0.00 0.00 0.00 0.00 0.00 0.00 0.00 0.01 0.01
0.00 0.00 0.00 0.01 0.01 0.01 0.01 0.00 0.00 0.00 0.00 0.01 0.01 0.01 0.01 0.01 0.01 0.00 0.00 0.01 0.01 0.01 0.01 0.01 0.00 0.00 0.00 0.00 0.00 0.00 0.00 0.00 0.00 0.00 0.01 0.02 0.01 0.00 0.01 0.00 0.00 0.01 0.01
0.00 0.00 0.00 0.01 0.01 0.01 0.00 0.00 0.00 0.00 0.00 0.01 0.01 0.01 0.01 0.01 0.00 0.00 0.00 0.00 0.00 0.00 0.00 0.00 0.00 0.00 0.00 0.00 0.00 0.00 0.00 0.00 0.00 0.01 0.02 0.02 0.01 0.01 0.01 0.01 0.01 0.01 0.01
0.00 0.00 0.01 0.01 0.01 0.00 0.00 0.00 0.00 0.00 0.00 0.01 0.01 0.01 0.01 0.01 0.00 0.00 0.00 0.00 0.00 0.00 0.00 0.00 0.00 0.00 0.00 0.00 0.00 0.00 0.00 0.00 0.00 0.01 0.02 0.02 0.01 0.01 0.01 0.00 0.01 0.01 0.01
0.00 0.00 0.01 0.01 0.01 0.00 0.00 0.00 0.00 0.00 0.00 0.00 0.01 0.01 0.01 0.01 0.00 0.00 0.00 0.00 0.00 0.00 0.00 0.00 0.00 0.00 0.00 0.00 0.00 0.00 0.00 0.00 0.00 0.00 0.01 0.01 0.01 0.01 0.01 0.00 0.00 0.00 0.01
0.00 0.00 0.01 0.01 0.01 0.00 0.00 0.00 0.00 0.00 0.00 0.00 0.01 0.01 0.01 0.01 0.00 0.00 0.00 0.00 0.00 0.00 0.00 0.00 0.00 0.00 0.00 0.00 0.00 0.00 0.00 0.00 0.00 0.00 0.00 0.00 0.00 0.00 0.00 0.00 0.00 0.00 0.00
0.00 0.00 0.01 0.01 0.01 0.00 0.00 0.00 0.00 0.00 0.00 0.00 0.01 0.01 0.00 0.00 0.00 0.00 0.00 0.00 0.00 0.00 0.00 0.00 0.00 0.00 0.00 0.00 0.00 0.00 0.00 0.00 0.00 0.00 0.00 0.00 0.00 0.00 0.00 0.00 0.00 0.00 0.00
0.00 0.01 0.01 0.01 0.01 0.01 0.00 0.00 0.00 0.00 0.00 0.01 0.01 0.00 0.00 0.00 0.00 0.00 0.00 0.00 0.00 0.00 0.00 0.00 0.00 0.00 0.00 0.00 0.00 0.00 0.00 0.00 0.00 0.00 0.00 0.00 0.00 0.00 0.00 0.00 0.00 0.00 0.00
0.01 0.01 0.01 0.01 0.01 0.01 0.00 0.00 0.00 0.00 0.00 0.00 0.00 0.00 0.00 0.00 0.00 0.00 0.00 0.00 0.00 0.00 0.00 0.00 0.00 0.00 0.00 0.00 0.00 0.00 0.00 0.00 0.00 0.00 0.00 0.00 0.00 0.00 0.00 0.00 0.00 0.00 0.00
0.02 0.02 0.02 0.02 0.01 0.01 0.01 0.00 0.00 0.00 0.00 0.00 0.00 0.00 0.00 0.00 0.00 0.00 0.00 0.00 0.00 0.00 0.00 0.00 0.00 0.00 0.00 0.00 0.00 0.00 0.00 0.00 0.00 0.00 0.00 0.00 0.00 0.00 0.00 0.00 0.00 0.00 0.00
0.03 0.03 0.03 0.03 0.03 0.01 0.00 0.00 0.00 0.00 0.00 0.00 0.00 0.00 0.00 0.00 0.00 0.00 0.00 0.00 0.00 0.00 0.00 0.00 0.00 0.00 0.00 0.00 0.00 0.00 0.00 0.00 0.00 0.00 0.00 0.00 0.00 0.00 0.00 0.00 0.00 0.00 0.00
0.04 0.04 0.04 0.04 0.03 0.01 0.01 0.00 0.00 0.00 0.01 0.01 0.00 0.00 0.00 0.00 0.00 0.00 0.00 0.00 0.00 0.00 0.00 0.00 0.00 0.00 0.00 0.00 0.00 0.00 0.00 0.00 0.00 0.00 0.00 0.00 0.00 0.00 0.00 0.00 0.00 0.00 0.00
0.05 0.05 0.04 0.04 0.03 0.01 0.01 0.00 0.00 0.00 0.01 0.01 0.01 0.00 0.00 0.00 0.00 0.00 0.00 0.00 0.00 0.00 0.00 0.00 0.00 0.00 0.00 0.00 0.00 0.00 0.00 0.00 0.00 0.00 0.00 0.00 0.00 0.00 0.00 0.00 0.00 0.00 0.00
0.06 0.05 0.05 0.05 0.04 0.02 0.01 0.01 0.00 0.00 0.00 0.00 0.00 0.00 0.00 0.00 0.00 0.00 0.00 0.00 0.00 0.00 0.00 0.00 0.00 0.00 0.00 0.00 0.00 0.00 0.00 0.00 0.00 0.00 0.00 0.00 0.00 0.00 0.00 0.00 0.00 0.00 0.00
0.06 0.06 0.05 0.05 0.06 0.04 0.03 0.02 0.01 0.00 0.00 0.00 0.00 0.00 0.00 0.00 0.00 0.00 0.00 0.00 0.00 0.00 0.00 0.00 0.00 0.00 0.00 0.00 0.00 0.00 0.00 0.00 0.00 0.00 0.00 0.00 0.00 0.00 0.00 0.00 0.00 0.00 0.01
0.06 0.06 0.05 0.04 0.04 0.04 0.03 0.03 0.02 0.00 0.00 0.00 0.00 0.00 0.00 0.00 0.00 0.00 0.00 0.00 0.00 0.00 0.00 0.00 0.00 0.00 0.00 0.00 0.00 0.00 0.00 0.00 0.00 0.00 0.00 0.00 0.00 0.00 0.00 0.00 0.00 0.01 0.02
0.08 0.07 0.06 0.04 0.04 0.04 0.03 0.03 0.03 0.01 0.00 0.00 0.00 0.00 0.00 0.00 0.00 0.00 0.01 0.01 0.01 0.01 0.01 0.01 0.01 0.01 0.01 0.01 0.01 0.00 0.00 0.00 0.00 0.00 0.00 0.00 0.00 0.00 0.00 0.00 0.00 0.00 0.01
0.08 0.07 0.05 0.04 0.03 0.04 0.03 0.03 0.03 0.03 0.02 0.01 0.01 0.00 0.00 0.00 0.00 0.00 0.01 0.01 0.02 0.01 0.02 0.02 0.01 0.01 0.01 0.01 0.01 0.00 0.00 0.00 0.00 0.00 0.00 0.00 0.00 0.00 0.00 0.00 0.00 0.00 0.01
0.06 0.06 0.05 0.04 0.03 0.04 0.04 0.04 0.04 0.03 0.02 0.02 0.01 0.00 0.00 0.00 0.00 0.00 0.00 0.01 0.01 0.01 0.01 0.02 0.01 0.01 0.01 0.01 0.01 0.01 0.00 0.00 0.00 0.00 0.00 0.00 0.00 0.00 0.00 0.00 0.00 0.01 0.00
0.05 0.05 0.05 0.06 0.06 0.04 0.04 0.03 0.03 0.03 0.03 0.02 0.01 0.00 0.00 0.00 0.00 0.00 0.00 0.01 0.01 0.01 0.01 0.02 0.02 0.02 0.02 0.02 0.02 0.01 0.00 0.00 0.00 0.00 0.00 0.00 0.00 0.00 0.00 0.00 0.00 0.01 0.01
0.02 0.03 0.04 0.05 0.05 0.05 0.05 0.06 0.05 0.04 0.03 0.02 0.01 0.01 0.01 0.00 0.00 0.00 0.00 0.01 0.01 0.01 0.01 0.02 0.02 0.02 0.02 0.02 0.02 0.02 0.01 0.00 0.00 0.00 0.00 0.00 0.00 0.00 0.00 0.00 0.00 0.00 0.00
0.01 0.02 0.04 0.04 0.04 0.05 0.06 0.06 0.04 0.03 0.02 0.02 0.02 0.01 0.01 0.01 0.01 0.01 0.00 0.00 0.01 0.01 0.01 0.01 0.02 0.02 0.02 0.02 0.02 0.02 0.02 0.01 0.01 0.00 0.00 0.00 0.00 0.00 0.00 0.00 0.00 0.00 0.00
0.01 0.01 0.02 0.02 0.02 0.03 0.03 0.03 0.03 0.02 0.02 0.02 0.02 0.02 0.01 0.01 0.01 0.00 0.00 0.00 0.00 0.00 0.00 0.01 0.01 0.01 0.02 0.02 0.02 0.02 0.02 0.02 0.02 0.01 0.00 0.00 0.00 0.00 0.00 0.00 0.00 0.00 0.00
0.00 0.00 0.01 0.02 0.01 0.01 0.01 0.01 0.01 0.01 0.02 0.02 0.02 0.01 0.01 0.00 0.00 0.00 0.00 0.00 0.00 0.00 0.00 0.00 0.00 0.01 0.01 0.01 0.01 0.02 0.01 0.02 0.02 0.02 0.01 0.01 0.00 0.00 0.00 0.00 0.00 0.00 0.00
0.00 0.00 0.00 0.01 0.01 0.01 0.01 0.00 0.00 0.01 0.01 0.01 0.00 0.00 0.00 0.00 0.00 0.00 0.00 0.00 0.00 0.00 0.00 0.00 0.00 0.00 0.01 0.01 0.01 0.01 0.02 0.02 0.02 0.02 0.02 0.01 0.01 0.01 0.00 0.00 0.00 0.00 0.00
MSLP
1014.34 1014.46 1014.65 1014.95 1015.34 1015.78 1016.21 1016.59 1016.87 1017.05 1017.14 1017.17 1017.19 1017.22 1017.29 1017.38 1017.50 1017.63 1017.75 1017.86 1017.96 1018.08 1018.21 1018.38 1018.56 1018.76 1018.94 1019.10 1019.20 1019.26 1019.28 1019.28 1019.27 1019.27 1019.29 1019.31 1019.34 1019.34 1019.32 1019.26 1019.18 1019.08 1018.99
1014.01 1014.23 1014.55 1014.98 1015.47 1015.98 1016.45 1016.81 1017.06 1017.21 1017.27 1017.30 1017.35 1017.44 1017.58 1017.76 1017.96 1018.16 1018.32 1018.46 1018.57 1018.68 1018.80 1018.93 1019.09 1019.24 1019.38 1019.48 1019.53 1019.54 1019.52 1019.49 1019.47 1019.49 1019.53 1019.58 1019.63 1019.65 1019.64 1019.58 1019.48 1019.37 1019.27
1013.68 1014.00 1014.45 1014.99 1015.59 1016.16 1016.65 1017.02 1017.26 1017.38 1017.44 1017.49 1017.57 1017.72 1017.93 1018.18 1018.43 1018.66 1018.85 1018.99 1019.10 1019.19 1019.29 1019.40 1019.53 1019.64 1019.74 1019.79 1019.79 1019.75 1019.70 1019.65 1019.64 1019.67 1019.73 1019.82 1019.91 1019.96 1019.96 1019.90 1019.81 1019.69 1019.58
1013.43 1013.84 1014.39 1015.03 1015.71 1016.34 1016.85 1017.22 1017.45 1017.57 1017.63 1017.71 1017.84 1018.04 1018.30 1018.59 1018.88 1019.12 1019.31 1019.43 1019.52 1019.60 1019.68 1019.77 1019.88 1019.97 1020.04 1020.05 1020.02 1019.95 1019.87 1019.81 1019.79 1019.84 1019.93 1020.06 1020.17 1020.25 1020.27 1020.23 1020.14 1020.02 1019.91
1013.32 1013.79 1014.41 1015.13 1015.86 1016.52 1017.05 1017.42 1017.65 1017.77 1017.85 1017.95 1018.12 1018.36 1018.66 1018.98 1019.27 1019.51 1019.68 1019.78 1019.85 1019.90 1019.97 1020.07 1020.17 1020.26 1020.31 1020.31 1020.25 1020.15 1020.05 1019.98 1019.97 1020.02 1020.14 1020.29 1020.43 1020.53 1020.57 1020.55 1020.46 1020.35 1020.24
1013.38 1013.89 1014.55 1015.31 1016.06 1016.73 1017.26 1017.62 1017.83 1017.96 1018.06 1018.19 1018.39 1018.67 1018.99 1019.32 1019.61 1019.83 1019.97 1020.05 1020.10 1020.14 1020.22 1020.32 1020.43 1020.53 1020.58 1020.58 1020.51 1020.39 1020.28 1020.19 1020.17 1020.23 1020.35 1020.52 1020.68 1020.79 1020.85 1020.83 1020.76 1020.66 1020.56
1013.61 1014.12 1014.80 1015.56 1016.31 1016.96 1017.46 1017.80 1018.01 1018.14 1018.25 1018.41 1018.64 1018.94 1019.27 1019.60 1019.88 1020.08 1020.19 1020.26 1020.29 1020.34 1020.43 1020.55 1020.68 1020.80 1020.86 1020.86 1020.78 1020.66 1020.52 1020.42 1020.39 1020.44 1020.56 1020.73 1020.89 1021.02 1021.08 1021.08 1021.02 1020.93 1020.84
1013.96 1014.46 1015.12 1015.85 1016.57 1017.18 1017.65 1017.96 1018.15 1018.28 1018.41 1018.59 1018.84 1019.16 1019.50 1019.82 1020.09 1020.27 1020.37 1020.42 1020.46 1020.52 1020.62 1020.76 1020.92 1021.05 1021.13 1021.13 1021.05 1020.91 1020.76 1020.64 1020.59 1020.63 1020.74 1020.90 1021.06 1021.19 1021.26 1021.27 1021.22 1021.14 1021.07
1014.38 1014.85 1015.47 1016.15 1016.81 1017.37 1017.79 1018.08 1018.25 1018.38 1018.52 1018.71 1018.99 1019.32 1019.66 1019.98 1020.24 1020.41 1020.50 1020.55 1020.59 1020.66 1020.78 1020.94 1021.12 1021.26 1021.35 1021.34 1021.25 1021.10 1020.94 1020.81 1020.74 1020.76 1020.86 1021.01 1021.17 1021.30 1021.38 1021.39 1021.35 1021.29 1021.24
1014.79 1015.22 1015.78 1016.40 1016.99 1017.50 1017.87 1018.12 1018.29 1018.41 1018.57 1018.78 1019.07 1019.41 1019.76 1020.08 1020.32 1020.49 1020.58 1020.63 1020.68 1020.76 1020.89 1021.05 1021.23 1021.38 1021.46 1021.45 1021.35 1021.19 1021.02 1020.87 1020.80 1020.81 1020.90 1021.04 1021.20 1021.33 1021.41 1021.44 1021.42 1021.38 1021.34
1015.12 1015.51 1016.01 1016.56 1017.09 1017.53 1017.87 1018.10 1018.25 1018.39 1018.56 1018.79 1019.09 1019.43 1019.78 1020.09 1020.34 1020.50 1020.59 1020.65 1020.70 1020.78 1020.91 1021.07 1021.24 1021.38 1021.45 1021.42 1021.32 1021.16 1020.98 1020.83 1020.75 1020.76 1020.84 1020.98 1021.14 1021.28 1021.37 1021.41 1021.41 1021.39 1021.37
1015.35 1015.69 1016.13 1016.62 1017.08 1017.48 1017.78 1017.99 1018.15 1018.30 1018.48 1018.73 1019.03 1019.38 1019.72 1020.03 1020.27 1020.43 1020.53 1020.58 1020.64 1020.72 1020.84 1020.99 1021.14 1021.25 1021.30 1021.27 1021.16 1021.00 1020.82 1020.68 1020.60 1020.61 1020.70 1020.83 1020.99 1021.14 1021.25 1021.30 1021.33 1021.32 1021.33
1015.47 1015.76 1016.15 1016.57 1016.97 1017.33 1017.60 1017.81 1017.98 1018.15 1018.35 1018.60 1018.90 1019.24 1019.58 1019.88 1020.12 1020.28 1020.38 1020.45 1020.50 1020.58 1020.68 1020.81 1020.93 1021.02 1021.05 1021.02 1020.91 1020.75 1020.59 1020.46 1020.39 1020.39 1020.48 1020.61 1020.77 1020.92 1021.04 1021.12 1021.16 1021.18 1021.20
1015.49 1015.75 1016.08 1016.44 1016.79 1017.11 1017.38 1017.59 1017.77 1017.96 1018.17 1018.42 1018.72 1019.04 1019.37 1019.66 1019.89 1020.06 1020.17 1020.24 1020.30 1020.38 1020.46 1020.57 1020.67 1020.74 1020.76 1020.72 1020.61 1020.48 1020.33 1020.21 1020.14 1020.15 1020.22 1020.34 1020.49 1020.64 1020.76 1020.85 1020.91 1020.95 1020.99
1015.46 1015.68 1015.95 1016.26 1016.57 1016.86 1017.12 1017.35 1017.55 1017.75 1017.97 1018.22 1018.50 1018.80 1019.11 1019.38 1019.61 1019.79 1019.92 1020.00 1020.07 1020.14 1020.22 1020.31 1020.40 1020.45 1020.47 1020.43 1020.34 1020.22 1020.09 1019.97 1019.90 1019.89 1019.94 1020.04 1020.16 1020.29 1020.41 1020.51 1020.58 1020.64 1020.70
1015.41 1015.58 1015.80 1016.06 1016.34 1016.62 1016.88 1017.12 1017.34 1017.55 1017.78 1018.02 1018.28 1018.56 1018.83 1019.10 1019.33 1019.51 1019.65 1019.76 1019.85 1019.93 1020.01 1020.09 1020.16 1020.22 1020.23 1020.21 1020.14 1020.03 1019.91 1019.79 1019.70 1019.66 1019.67 1019.72 1019.81 1019.91 1020.02 1020.12 1020.20 1020.28 1020.35
1015.35 1015.49 1015.66 1015.88 1016.14 1016.41 1016.68 1016.94 1017.18 1017.41 1017.62 1017.85 1018.08 1018.33 1018.58 1018.83 1019.06 1019.26 1019.42 1019.55 1019.66 1019.75 1019.84 1019.92 1019.99 1020.05 1020.07 1020.06 1020.01 1019.91 1019.79 1019.66 1019.55 1019.46 1019.41 1019.41 1019.45 1019.52 1019.61 1019.70 1019.80 1019.89 1019.98
1015.29 1015.39 1015.53 1015.72 1015.96 1016.24 1016.53 1016.82 1017.08 1017.32 1017.54 1017.74 1017.95 1018.16 1018.39 1018.62 1018.85 1019.05 1019.24 1019.39 1019.52 1019.63 1019.73 1019.81 1019.89 1019.95 1019.99 1019.99 1019.95 1019.86 1019.74 1019.59 1019.43 1019.29 1019.18 1019.12 1019.10 1019.14 1019.21 1019.31 1019.42 1019.53 1019.63
1015.23 1015.30 1015.41 1015.59 1015.83 1016.13 1016.45 1016.76 1017.05 1017.30 1017.52 1017.71 1017.89 1018.07 1018.27 1018.49 1018.71 1018.93 1019.13 1019.30 1019.45 1019.57 1019.67 1019.76 1019.84 1019.90 1019.95 1019.97 1019.93 1019.85 1019.72 1019.54 1019.34 1019.15 1018.98 1018.85 1018.80 1018.80 1018.87 1018.98 1019.11 1019.25 1019.38
1015.13 1015.18 1015.29 1015.47 1015.73 1016.06 1016.41 1016.76 1017.08 1017.35 1017.57 1017.74 1017.90 1018.06 1018.24 1018.44 1018.66 1018.88 1019.09 1019.28 1019.43 1019.55 1019.65 1019.74 1019.82 1019.88 1019.93 1019.96 1019.93 1019.85 1019.71 1019.51 1019.27 1019.02 1018.81 1018.64 1018.55 1018.55 1018.62 1018.76 1018.93 1019.10 1019.26
1014.98 1015.05 1015.16 1015.37 1015.66 1016.02 1016.42 1016.81 1017.16 1017.44 1017.67 1017.84 1017.99 1018.13 1018.30 1018.49 1018.70 1018.92 1019.13 1019.32 1019.46 1019.58 1019.66 1019.74 1019.80 1019.87 1019.92 1019.94 1019.92 1019.84 1019.69 1019.47 1019.21 1018.93 1018.68 1018.49 1018.39 1018.39 1018.49 1018.67 1018.89 1019.11 1019.30
1014.80 1014.89 1015.03 1015.27 1015.60 1016.01 1016.44 1016.87 1017.25 1017.56 1017.80 1017.98 1018.12 1018.27 1018.43 1018.62 1018.83 1019.05 1019.25 1019.42 1019.55 1019.64 1019.70 1019.75 1019.80 1019.85 1019.89 1019.92 1019.90 1019.82 1019.67 1019.45 1019.17 1018.87 1018.61 1018.41 1018.32 1018.34 1018.49 1018.72 1019.00 1019.28 1019.52
1014.60 1014.72 1014.91 1015.19 1015.57 1016.01 1016.48 1016.94 1017.35 1017.68 1017.94 1018.14 1018.30 1018.46 1018.63 1018.82 1019.03 1019.24 1019.43 1019.58 1019.68 1019.74 1019.77 1019.78 1019.81 1019.83 1019.87 1019.90 1019.88 1019.81 1019.66 1019.44 1019.16 1018.87 1018.60 1018.42 1018.35 1018.41 1018.61 1018.90 1019.25 1019.59 1019.87
1014.41 1014.58 1014.82 1015.14 1015.55 1016.03 1016.52 1017.00 1017.43 1017.79 1018.07 1018.30 1018.49 1018.68 1018.87 1019.09 1019.31 1019.51 1019.69 1019.81 1019.88 1019.89 1019.88 1019.86 1019.84 1019.85 1019.88 1019.90 1019.89 1019.83 1019.69 1019.48 1019.21 1018.93 1018.68 1018.51 1018.47 1018.58 1018.82 1019.17 1019.58 1019.98 1020.31
1014.27 1014.50 1014.78 1015.14 1015.58 1016.07 1016.58 1017.06 1017.51 1017.88 1018.20 1018.46 1018.69 1018.92 1019.15 1019.39 1019.63 1019.84 1020.00 1020.09 1020.12 1020.10 1020.04 1019.98 1019.93 1019.92 1019.93 1019.94 1019.94 1019.89 1019.77 1019.58 1019.33 1019.07 1018.84 1018.70 1018.68 1018.82 1019.10 1019.49 1019.94 1020.38 1020.75
1014.21 1014.49 1014.82 1015.20 1015.65 1016.14 1016.64 1017.13 1017.58 1017.97 1018.31 1018.62 1018.90 1019.18 1019.46 1019.73 1019.99 1020.20 1020.35 1020.42 1020.41 1020.35 1020.25 1020.15 1020.08 1020.04 1020.04 1020.05 1020.06 1020.02 1019.92 1019.75 1019.53 1019.29 1019.08 1018.96 1018.96 1019.12 1019.41 1019.83 1020.30 1020.76 1021.16
Thickness
5764 5762 5758 5755 5753 5752 5751 5749 5748 5747 5746 5745 5745 5744 5743 5743 5742 5742 5741 5740 5739 5738 5736 5734 5733 5731 5729 5728 5726 5725 5724 5723 5722 5721 5720 5719 5718 5717 5717 5716 5715 5713 5712
5767 5760 5756 5753 5751 5750 5748 5747 5745 5744 5743 5743 5742 5741 5740 5739 5739 5738 5737 5736 5735 5733 5732 5730 5729 5727 5726 5724 5723 5722 5721 5720 5719 5718 5717 5716 5715 5714 5713 5712 5711 5710 5708
5765 5757 5754 5751 5749 5747 5746 5744 5743 5742 5741 5740 5740 5738 5737 5736 5735 5734 5733 5732 5731 5729 5728 5726 5725 5724 5722 5721 5720 5719 5719 5718 5717 5716 5715 5713 5712 5710 5709 5708 5707 5706 5704
5761 5755 5751 5748 5746 5745 5743 5742 5740 5739 5739 5738 5737 5736 5734 5733 5732 5731 5730 5728 5726 5725 5724 5722 5721 5720 5719 5718 5717 5717 5716 5716 5715 5715 5713 5710 5709 5707 5705 5704 5703 5702 5700
5758 5753 5748 5745 5743 5742 5740 5739 5738 5737 5736 5735 5734 5733 5731 5730 5728 5727 5726 5724 5723 5721 5720 5719 5718 5717 5716 5715 5714 5714 5714 5713 5713 5712 5710 5707 5705 5703 5701 5700 5698 5697 5696
5754 5749 5744 5742 5740 5738 5737 5736 5735 5734 5733 5732 5731 5729 5728 5727 5725 5723 5722 5720 5719 5718 5717 5716 5714 5713 5712 5712 5711 5711 5711 5711 5710 5709 5706 5703 5701 5699 5698 5696 5694 5693 5691
5750 5744 5740 5738 5736 5735 5733 5732 5732 5731 5730 5729 5728 5726 5725 5723 5722 5720 5719 5717 5716 5715 5714 5713 5711 5710 5709 5709 5708 5708 5708 5708 5708 5706 5703 5700 5698 5696 5694 5692 5690 5689 5687
5745 5740 5736 5734 5733 5731 5730 5729 5728 5727 5727 5726 5724 5723 5722 5720 5719 5717 5715 5714 5713 5712 5711 5710 5708 5707 5706 5706 5705 5705 5705 5705 5705 5703 5700 5697 5695 5692 5690 5688 5686 5684 5682
5739 5735 5732 5730 5728 5727 5726 5725 5724 5724 5723 5722 5721 5720 5719 5717 5716 5714 5713 5711 5710 5709 5708 5707 5705 5705 5704 5703 5703 5703 5703 5703 5702 5701 5698 5695 5692 5689 5687 5685 5682 5680 5678
5734 5731 5729 5727 5725 5723 5722 5721 5721 5720 5720 5719 5718 5717 5716 5715 5714 5712 5710 5708 5707 5706 5705 5704 5703 5702 5702 5701 5701 5701 5701 5701 5700 5698 5696 5692 5689 5686 5684 5681 5678 5676 5673
5727 5727 5727 5725 5723 5721 5719 5718 5717 5717 5716 5715 5714 5714 5713 5713 5712 5710 5708 5706 5705 5704 5703 5702 5701 5701 5700 5700 5699 5699 5698 5698 5698 5696 5693 5690 5687 5684 5680 5678 5675 5672 5669
5718 5722 5723 5722 5721 5720 5717 5715 5714 5714 5713 5713 5712 5712 5712 5712 5711 5709 5706 5705 5703 5702 5701 5700 5700 5699 5699 5698 5697 5697 5696 5696 5696 5694 5692 5688 5685 5681 5678 5675 5671 5668 5665
5713 5716 5718 5719 5718 5717 5715 5714 5714 5713 5712 5712 5712 5711 5711 5710 5709 5707 5705 5703 5702 5701 5700 5699 5699 5698 5698 5698 5697 5696 5695 5694 5693 5691 5689 5686 5682 5678 5675 5672 5668 5665 5661
5709 5711 5713 5715 5714 5714 5713 5713 5713 5712 5711 5712 5711 5710 5710 5709 5708 5706 5705 5703 5702 5701 5700 5699 5698 5699 5698 5698 5697 5695 5694 5692 5691 5689 5686 5683 5680 5676 5672 5669 5665 5662 5658
5704 5706 5709 5710 5710 5710 5710 5710 5710 5710 5709 5709 5708 5707 5707 5706 5705 5705 5704 5703 5702 5701 5700 5698 5698 5698 5697 5696 5695 5694 5692 5690 5689 5688 5685 5681 5678 5674 5670 5666 5662 5659 5655
5700 5702 5705 5705 5706 5706 5706 5706 5706 5706 5706 5706 5705 5703 5703 5703 5702 5701 5700 5700 5699 5698 5697 5696 5695 5695 5694 5693 5692 5691 5690 5688 5687 5685 5683 5680 5676 5672 5668 5664 5660 5656 5653
5697 5699 5701 5701 5702 5702 5702 5702 5702 5702 5702 5702 5701 5700 5699 5699 5698 5697 5696 5695 5695 5694 5694 5693 5692 5691 5690 5689 5688 5687 5686 5685 5683 5681 5679 5677 5675 5671 5666 5661 5657 5653 5649
5693 5694 5696 5698 5698 5698 5698 5698 5698 5698 5698 5698 5697 5696 5695 5695 5694 5693 5692 5691 5691 5690 5689 5688 5687 5685 5684 5684 5683 5683 5683 5682 5680 5678 5676 5673 5670 5668 5664 5659 5654 5649 5645
5688 5689 5690 5692 5692 5693 5693 5693 5693 5693 5693 5693 5693 5692 5691 5690 5690 5689 5687 5687 5686 5686 5684 5683 5682 5680 5678 5678 5678 5678 5677 5676 5675 5674 5671 5669 5666 5663 5659 5655 5650 5645 5640
5683 5684 5685 5686 5688 5688 5688 5688 5687 5688 5688 5688 5687 5687 5686 5685 5684 5683 5682 5681 5681 5680 5678 5677 5676 5675 5673 5672 5672 5671 5671 5670 5670 5669 5667 5664 5660 5657 5653 5648 5644 5639 5634
5677 5679 5680 5681 5682 5683 5682 5681 5680 5679 5680 5681 5681 5680 5679 5678 5678 5677 5676 5675 5674 5673 5672 5671 5669 5668 5666 5665 5663 5662 5664 5666 5666 5665 5663 5658 5653 5650 5646 5641 5637 5632 5628
5670 5673 5675 5675 5676 5678 5678 5677 5676 5675 5674 5674 5674 5673 5672 5671 5670 5669 5668 5667 5666 5665 5664 5663 5662 5660 5659 5657 5653 5650 5651 5655 5658 5660 5656 5651 5646 5641 5637 5632 5628 5623 5619
5664 5667 5669 5670 5670 5671 5671 5670 5668 5666 5666 5665 5664 5664 5663 5662 5661 5660 5659 5658 5658 5657 5655 5654 5653 5651 5649 5648 5647 5642 5638 5638 5642 5646 5645 5642 5637 5632 5627 5623 5618 5613 5608
5658 5660 5662 5662 5663 5663 5664 5662 5660 5657 5656 5656 5656 5655 5654 5653 5652 5650 5649 5649 5648 5647 5646 5645 5644 5642 5641 5639 5638 5637 5635 5633 5628 5629 5630 5629 5626 5621 5616 5612 5607 5602 5597
5651 5652 5652 5653 5654 5654 5655 5654 5653 5651 5650 5648 5648 5646 5645 5643 5641 5639 5638 5638 5637 5637 5636 5635 5634 5633 5632 5630 5628 5627 5626 5625 5623 5618 5616 5615 5612 5609 5604 5600 5595 5590 5585
5643 5642 5643 5643 5643 5644 5645 5645 5644 5643 5641 5639 5637 5635 5634 5633 5631 5628 5627 5626 5626 5625 5624 5623 5623 5622 5621 5620 5619 5617 5615 5613 5612 5609 5607 5605 5601 5597 5593 5587 5582 5577 5573